Flag for Brazil Weather past 2 weeks in Teresina, Piauí, Brazil

Now
73 °F

Clear.


Feels Like: 74 °F
Forecast: 72 / 95 °F
Wind: No wind

Location: Teresina Aeroporto

Current Time: Aug 2, 2015 at 1:45:24 AM

Latest Report: Aug 2, 2015 at 1:00 AM


Visibility: 10 mi

Pressure: 29.92 "Hg

Humidity: 78%

Dew point: 66 °F

Location of TeresinaLocation

Historic Weather in Teresina — Graph

°F

Teresina temperature yesterday

Maximum temperature yesterday: 95 °F (at 3:00 PM)
Minimum temperature yesterday: 77 °F (at 6:00 AM)
Average temperature yesterday: 85 °F

Past Weeks' High & Low Weather Summary

 TemperatureHumidityPressure
High97 °F (Jul 20, 2:00 PM)100% (Jul 22, 5:00 AM)30.01 "Hg (Jul 22, 5:00 AM)
Low72 °F (Jul 27, 5:00 AM)23% (Aug 1, 5:00 PM)29.80 "Hg (Jul 27, 4:00 PM)
Average85 °F62%29.91 "Hg
* Reported Midnight between Jul 17 and Jul 18 — Midnight between Aug 1 and Aug 2, Teresina, Weather by CustomWeather, © 2015

Note: Actual official high and low records may vary slightly from our data, if they occured in-between our weather recording intervals... More about our weather records

Advertising

Teresina weather history for previous 24 hours

 ConditionsComfort  
Time TempWeatherWind HumidityBarometerVisibility
12:00 AM
Sun, Aug 2
75 °FClear.2 mph65%29.92 "Hg10 mi
11:00 PM
Sat, Aug 1
77 °FClear.No wind65%29.92 "Hg10 mi
10:00 PM79 °FClear.5 mph54%29.89 "Hg10 mi
9:00 PM81 °FClear.No wind58%29.89 "Hg10 mi
8:00 PM82 °FClear.No wind51%29.86 "Hg10 mi
7:00 PM88 °FClear.No wind33%29.83 "Hg10 mi
6:00 PM93 °FClear.5 mph23%29.83 "Hg10 mi
5:00 PM95 °FSunny.8 mph23%29.80 "Hg10 mi
4:00 PM95 °FSunny.9 mph25%29.80 "Hg10 mi
3:00 PM95 °FSunny.12 mph26%29.83 "Hg10 mi
2:00 PM93 °FSunny.12 mph28%29.86 "Hg10 mi
1:00 PM93 °FSunny.8 mph32%29.89 "Hg10 mi
12:00 PM90 °FSunny.9 mph36%29.95 "Hg10 mi
11:00 AM90 °FSunny.8 mph41%29.95 "Hg10 mi
10:00 AM86 °FSunny.13 mph46%29.98 "Hg10 mi
9:00 AM84 °FSunny.10 mph51%29.98 "Hg10 mi
8:00 AM81 °FSunny.13 mph58%29.98 "Hg10 mi
7:00 AM79 °FSunny.8 mph61%29.95 "Hg10 mi
6:00 AM77 °FSunny.No wind69%29.95 "Hg10 mi
5:00 AM79 °FClear.5 mph61%29.92 "Hg10 mi
4:00 AM79 °FClear.5 mph61%29.92 "Hg10 mi
3:00 AM81 °FClear.7 mph58%29.92 "Hg10 mi
2:00 AM82 °FClear.3 mph51%29.92 "Hg10 mi
1:00 AM81 °FClear.7 mph58%29.92 "Hg10 mi
Weather by CustomWeather, © 2015

See weather overviewHow to use our weather pages